Time,TemperatureF,DewpointF,PressureIn,WindDirection,WindDirectionDegrees,WindSpeedMPH,WindSpeedGustMPH,Humidity,HourlyPrecipIn,Conditions,Clouds,dailyrainin,SoftwareType,DateUTC
2013-06-08 00:01:00,61.3,51.2,29.93,West,270,0.0,0.0,69,0.00,,,0.00,WUHU21623XXSP,2013-06-08 04:01:00,
2013-06-08 00:02:00,61.3,51.2,29.93,West,270,0.0,0.0,69,0.00,,,0.00,WUHU21623XXSP,2013-06-08 04:02:00,
2013-06-08 00:07:00,61.2,51.0,29.93,West,270,0.0,0.0,69,0.00,,,0.00,WUHU21623XXSP,2013-06-08 04:07:00,
2013-06-08 00:12:00,61.0,50.8,29.93,West,270,0.0,0.0,69,0.00,,,0.00,WUHU21623XXSP,2013-06-08 04:12:00,
2013-06-08 00:17:00,61.0,50.8,29.93,West,270,0.0,0.0,69,0.00,,,0.00,WUHU21623XXSP,2013-06-08 04:17:00,
2013-06-08 00:22:00,60.8,50.7,29.94,West,270,0.0,0.0,69,0.00,,,0.00,WUHU21623XXSP,2013-06-08 04:22:00,
2013-06-08 00:27:00,60.6,50.5,29.94,West,270,0.0,0.0,69,0.00,,,0.00,WUHU21623XXSP,2013-06-08 04:27:00,
2013-06-08 00:32:00,60.6,50.9,29.94,West,270,0.0,0.0,70,0.00,,,0.00,WUHU21623XXSP,2013-06-08 04:32:00,
2013-06-08 00:37:00,60.4,50.7,29.94,West,270,0.0,0.0,70,0.00,,,0.00,WUHU21623XXSP,2013-06-08 04:37:00,
2013-06-08 00:42:00,60.1,50.4,29.94,ENE,67,0.0,0.0,70,0.00,,,0.00,WUHU21623XXSP,2013-06-08 04:42:00,
2013-06-08 00:47:00,60.1,50.4,29.94,ESE,112,0.0,0.0,70,0.00,,,0.00,WUHU21623XXSP,2013-06-08 04:47:00,
2013-06-08 00:52:00,59.9,50.2,29.94,ESE,112,0.0,0.0,70,0.00,,,0.00,WUHU21623XXSP,2013-06-08 04:52:00,
2013-06-08 00:57:00,59.7,50.0,29.94,ESE,112,0.0,0.0,70,0.00,,,0.00,WUHU21623XXSP,2013-06-08 04:57:00,
2013-06-08 01:02:00,59.7,50.0,29.94,North,0,0.0,0.0,70,0.00,,,0.00,WUHU21623XXSP,2013-06-08 05:02:00,
2013-06-08 01:07:00,59.5,50.2,29.94,ESE,112,0.0,0.0,71,0.00,,,0.00,WUHU21623XXSP,2013-06-08 05:07:00,
2013-06-08 01:12:00,59.2,49.8,29.94,ESE,112,0.0,0.0,71,0.00,,,0.00,WUHU21623XXSP,2013-06-08 05:12:00,
2013-06-08 01:17:00,58.8,49.5,29.94,ESE,112,0.0,0.0,71,0.00,,,0.00,WUHU21623XXSP,2013-06-08 05:17:00,
2013-06-08 01:22:00,58.8,49.8,29.94,ESE,112,0.0,0.0,72,0.00,,,0.00,WUHU21623XXSP,2013-06-08 05:22:00,
2013-06-08 01:27:00,58.8,49.8,29.94,ESE,112,0.0,0.0,72,0.00,,,0.00,WUHU21623XXSP,2013-06-08 05:27:00,
2013-06-08 01:32:00,58.8,49.5,29.94,ESE,112,0.0,0.0,71,0.00,,,0.00,WUHU21623XXSP,2013-06-08 05:32:00,
2013-06-08 01:37:00,58.8,49.5,29.93,ESE,112,0.0,0.0,72,0.00,,,0.00,WUHU21623XXSP,2013-06-08 05:37:00,
2013-06-08 01:42:00,58.6,49.6,29.94,ESE,112,0.0,0.0,72,0.00,,,0.00,WUHU21623XXSP,2013-06-08 05:42:00,
2013-06-08 01:47:00,58.6,49.6,29.94,ESE,112,0.0,0.0,72,0.00,,,0.00,WUHU21623XXSP,2013-06-08 05:47:00,
2013-06-08 01:52:00,58.3,49.3,29.94,ESE,112,0.0,0.0,72,0.00,,,0.00,WUHU21623XXSP,2013-06-08 05:52:00,
2013-06-08 01:57:00,58.1,48.7,29.94,ESE,112,0.0,0.0,71,0.00,,,0.00,WUHU21623XXSP,2013-06-08 05:57:00,
2013-06-08 02:02:00,58.1,48.7,29.94,ESE,112,0.0,0.0,71,0.00,,,0.00,WUHU21623XXSP,2013-06-08 06:02:00,
2013-06-08 02:14:00,58.1,48.7,29.94,ESE,112,0.0,0.0,71,0.00,,,0.00,WUHU21623XXSP,2013-06-08 06:14:00,
2013-06-08 02:19:00,57.4,48.4,29.94,ESE,112,0.0,0.0,72,0.00,,,0.00,WUHU21623XXSP,2013-06-08 06:19:00,
2013-06-08 02:24:00,57.4,48.7,29.94,ESE,112,0.0,0.0,73,0.00,,,0.00,WUHU21623XXSP,2013-06-08 06:24:00,
2013-06-08 02:29:00,57.0,48.4,29.94,ESE,112,0.0,0.0,73,0.00,,,0.00,WUHU21623XXSP,2013-06-08 06:29:00,
2013-06-08 02:34:00,57.0,48.4,29.94,ESE,112,0.0,0.0,73,0.00,,,0.00,WUHU21623XXSP,2013-06-08 06:34:00,
2013-06-08 02:39:00,56.8,48.2,29.94,ESE,112,0.0,0.0,73,0.00,,,0.00,WUHU21623XXSP,2013-06-08 06:39:00,
2013-06-08 02:44:00,56.5,47.9,29.94,ESE,112,0.0,0.0,73,0.00,,,0.00,WUHU21623XXSP,2013-06-08 06:44:00,
2013-06-08 02:49:00,56.5,47.9,29.94,ESE,112,0.0,0.0,73,0.00,,,0.00,WUHU21623XXSP,2013-06-08 06:49:00,
2013-06-08 02:54:00,56.3,47.7,29.94,ESE,112,0.0,0.0,73,0.00,,,0.00,WUHU21623XXSP,2013-06-08 06:54:00,
2013-06-08 02:59:00,56.1,47.9,29.95,ESE,112,0.0,0.0,74,0.00,,,0.00,WUHU21623XXSP,2013-06-08 06:59:00,
2013-06-08 03:04:00,56.1,47.9,29.95,ESE,112,0.0,0.0,74,0.00,,,0.00,WUHU21623XXSP,2013-06-08 07:04:00,
2013-06-08 03:09:00,55.9,47.7,29.95,ESE,112,0.0,0.0,74,0.00,,,0.00,WUHU21623XXSP,2013-06-08 07:09:00,
2013-06-08 03:14:00,55.8,47.6,29.94,ESE,112,0.0,0.0,74,0.00,,,0.00,WUHU21623XXSP,2013-06-08 07:14:00,
2013-06-08 03:19:00,55.8,47.6,29.95,ESE,112,0.0,0.0,74,0.00,,,0.00,WUHU21623XXSP,2013-06-08 07:19:00,
2013-06-08 03:24:00,55.6,47.4,29.94,ESE,112,0.0,0.0,74,0.00,,,0.00,WUHU21623XXSP,2013-06-08 07:24:00,
2013-06-08 03:29:00,55.6,47.7,29.95,ESE,112,0.0,0.0,75,0.00,,,0.00,WUHU21623XXSP,2013-06-08 07:29:00,
2013-06-08 03:34:00,55.6,47.7,29.95,ESE,112,0.0,0.0,75,0.00,,,0.00,WUHU21623XXSP,2013-06-08 07:34:00,
2013-06-08 03:39:00,55.6,47.7,29.95,ESE,112,0.0,0.0,75,0.00,,,0.00,WUHU21623XXSP,2013-06-08 07:39:00,
2013-06-08 03:44:00,55.6,47.7,29.95,ESE,112,0.0,0.0,75,0.00,,,0.00,WUHU21623XXSP,2013-06-08 07:44:00,
2013-06-08 03:49:00,55.4,47.6,29.95,ESE,112,0.0,0.0,75,0.00,,,0.00,WUHU21623XXSP,2013-06-08 07:49:00,
2013-06-08 03:54:00,55.6,47.7,29.95,ESE,112,0.0,0.0,75,0.00,,,0.00,WUHU21623XXSP,2013-06-08 07:54:00,
2013-06-08 03:59:00,55.6,47.7,29.95,ESE,112,0.0,0.0,75,0.00,,,0.00,WUHU21623XXSP,2013-06-08 07:59:00,
2013-06-08 04:04:00,55.4,47.6,29.95,ESE,112,0.0,0.0,75,0.00,,,0.00,WUHU21623XXSP,2013-06-08 08:04:00,
2013-06-08 04:09:00,55.4,47.9,29.95,ESE,112,0.0,0.0,76,0.00,,,0.00,WUHU21623XXSP,2013-06-08 08:09:00,
2013-06-08 04:14:00,55.2,47.7,29.95,ESE,112,0.0,0.0,76,0.00,,,0.00,WUHU21623XXSP,2013-06-08 08:14:00,
2013-06-08 04:19:00,55.2,47.7,29.95,ESE,112,0.0,0.0,76,0.00,,,0.00,WUHU21623XXSP,2013-06-08 08:19:00,
2013-06-08 04:24:00,55.2,47.7,29.95,ESE,112,0.0,0.0,76,0.00,,,0.00,WUHU21623XXSP,2013-06-08 08:24:00,
2013-06-08 04:29:00,55.2,47.7,29.95,ESE,112,0.0,0.0,76,0.00,,,0.00,WUHU21623XXSP,2013-06-08 08:29:00,
2013-06-08 04:34:00,55.2,48.1,29.94,ESE,112,0.0,0.0,77,0.00,,,0.00,WUHU21623XXSP,2013-06-08 08:34:00,
2013-06-08 04:39:00,55.2,48.1,29.94,ESE,112,0.0,0.0,77,0.00,,,0.00,WUHU21623XXSP,2013-06-08 08:39:00,
2013-06-08 04:44:00,55.2,48.1,29.95,ESE,112,0.0,0.0,77,0.00,,,0.00,WUHU21623XXSP,2013-06-08 08:44:00,
2013-06-08 04:49:00,55.2,48.1,29.95,ESE,112,0.0,0.0,77,0.00,,,0.00,WUHU21623XXSP,2013-06-08 08:49:00,
2013-06-08 04:54:00,55.0,47.9,29.95,ESE,112,0.0,0.0,77,0.00,,,0.00,WUHU21623XXSP,2013-06-08 08:54:00,
2013-06-08 04:59:00,55.0,47.9,29.95,ESE,112,0.0,0.0,77,0.00,,,0.00,WUHU21623XXSP,2013-06-08 08:59:00,
2013-06-08 05:04:00,54.9,47.8,29.95,ESE,112,0.0,0.0,77,0.00,,,0.00,WUHU21623XXSP,2013-06-08 09:04:00,
2013-06-08 05:09:00,54.7,47.9,29.96,ESE,112,0.0,0.0,78,0.00,,,0.00,WUHU21623XXSP,2013-06-08 09:09:00,
2013-06-08 05:14:00,54.5,48.1,29.96,ESE,112,0.0,0.0,79,0.00,,,0.00,WUHU21623XXSP,2013-06-08 09:14:00,
2013-06-08 05:19:00,54.3,47.9,29.96,ESE,112,0.0,0.0,79,0.00,,,0.00,WUHU21623XXSP,2013-06-08 09:19:00,
2013-06-08 05:24:00,54.1,47.8,29.96,ESE,112,0.0,0.0,79,0.00,,,0.00,WUHU21623XXSP,2013-06-08 09:24:00,
2013-06-08 05:29:00,54.1,47.8,29.96,ESE,112,0.0,0.0,79,0.00,,,0.00,WUHU21623XXSP,2013-06-08 09:29:00,
2013-06-08 05:34:00,54.0,47.6,29.96,ESE,112,0.0,0.0,79,0.00,,,0.00,WUHU21623XXSP,2013-06-08 09:34:00,
2013-06-08 05:39:00,53.8,47.1,29.97,ESE,112,0.0,0.0,78,0.00,,,0.00,WUHU21623XXSP,2013-06-08 09:39:00,
2013-06-08 05:44:00,53.8,47.1,29.96,ESE,112,0.0,0.0,78,0.00,,,0.00,WUHU21623XXSP,2013-06-08 09:44:00,
2013-06-08 05:49:00,53.8,47.1,29.97,ESE,112,0.0,0.0,78,0.00,,,0.00,WUHU21623XXSP,2013-06-08 09:49:00,
2013-06-08 05:54:00,53.8,47.5,29.97,ESE,112,0.0,0.0,79,0.00,,,0.00,WUHU21623XXSP,2013-06-08 09:54:00,
2013-06-08 05:59:00,53.8,47.5,29.97,ESE,112,0.0,0.0,79,0.00,,,0.00,WUHU21623XXSP,2013-06-08 09:59:00,
2013-06-08 06:04:00,53.6,47.3,29.97,ESE,112,0.0,0.0,79,0.00,,,0.00,WUHU21623XXSP,2013-06-08 10:04:00,
2013-06-08 06:09:00,53.4,47.1,29.97,ESE,112,0.0,0.0,79,0.00,,,0.00,WUHU21623XXSP,2013-06-08 10:09:00,
2013-06-08 06:14:00,53.4,47.1,29.96,ESE,112,0.0,0.0,79,0.00,,,0.00,WUHU21623XXSP,2013-06-08 10:14:00,
2013-06-08 06:19:00,53.4,47.1,29.97,ESE,112,0.0,0.0,79,0.00,,,0.00,WUHU21623XXSP,2013-06-08 10:19:00,
2013-06-08 06:24:00,53.2,47.3,29.97,ESE,112,0.0,0.0,80,0.00,,,0.00,WUHU21623XXSP,2013-06-08 10:24:00,
2013-06-08 06:29:00,53.1,47.1,29.96,ESE,112,0.0,0.0,80,0.00,,,0.00,WUHU21623XXSP,2013-06-08 10:29:00,
2013-06-08 06:34:00,52.9,46.9,29.97,ESE,112,0.0,0.0,80,0.00,,,0.00,WUHU21623XXSP,2013-06-08 10:34:00,
2013-06-08 06:39:00,52.9,46.9,29.97,ESE,112,0.0,0.0,80,0.00,,,0.00,WUHU21623XXSP,2013-06-08 10:39:00,
2013-06-08 06:44:00,52.9,47.6,29.97,SE,135,0.0,0.0,82,0.00,,,0.00,WUHU21623XXSP,2013-06-08 10:44:00,
2013-06-08 06:49:00,52.9,47.6,29.97,SE,135,0.0,0.0,82,0.00,,,0.00,WUHU21623XXSP,2013-06-08 10:49:00,
2013-06-08 06:54:00,52.9,47.6,29.97,SE,135,0.0,0.0,82,0.00,,,0.00,WUHU21623XXSP,2013-06-08 10:54:00,
2013-06-08 06:59:00,52.9,47.6,29.97,SE,135,0.0,0.0,82,0.00,,,0.00,WUHU21623XXSP,2013-06-08 10:59:00,
2013-06-08 07:04:00,52.9,47.6,29.97,SE,135,0.0,0.0,82,0.00,,,0.00,WUHU21623XXSP,2013-06-08 11:04:00,
2013-06-08 07:09:00,53.2,47.9,29.97,SE,135,0.0,0.0,82,0.00,,,0.00,WUHU21623XXSP,2013-06-08 11:09:00,
2013-06-08 07:14:00,53.2,48.2,29.97,SE,135,0.0,0.0,83,0.00,,,0.00,WUHU21623XXSP,2013-06-08 11:14:00,
2013-06-08 07:19:00,53.4,48.4,29.97,SE,135,0.0,0.0,83,0.00,,,0.00,WUHU21623XXSP,2013-06-08 11:19:00,
2013-06-08 07:24:00,53.4,48.4,29.97,SE,135,0.0,0.0,83,0.00,,,0.00,WUHU21623XXSP,2013-06-08 11:24:00,
2013-06-08 07:29:00,53.8,48.7,29.98,SE,135,0.0,0.0,83,0.00,,,0.00,WUHU21623XXSP,2013-06-08 11:29:00,
2013-06-08 07:34:00,54.1,49.1,29.98,SSE,157,0.0,0.0,83,0.00,,,0.00,WUHU21623XXSP,2013-06-08 11:34:00,
2013-06-08 07:39:00,54.3,49.5,29.98,South,180,2.5,2.5,84,0.00,,,0.00,WUHU21623XXSP,2013-06-08 11:39:00,
2013-06-08 07:44:00,54.7,49.9,29.98,South,180,0.0,2.5,84,0.00,,,0.00,WUHU21623XXSP,2013-06-08 11:44:00,
2013-06-08 07:49:00,54.9,50.1,29.99,South,180,0.0,0.0,84,0.00,,,0.00,WUHU21623XXSP,2013-06-08 11:49:00,
2013-06-08 07:54:00,55.2,50.4,29.99,South,180,0.0,0.0,84,0.00,,,0.00,WUHU21623XXSP,2013-06-08 11:54:00,
2013-06-08 07:59:00,55.8,50.6,30.00,South,180,0.0,0.0,83,0.00,,,0.00,WUHU21623XXSP,2013-06-08 11:59:00,
2013-06-08 08:04:00,55.9,50.8,30.00,SSE,157,0.0,0.0,83,0.00,,,0.00,WUHU21623XXSP,2013-06-08 12:04:00,
2013-06-08 08:09:00,56.5,51.3,30.00,South,180,0.0,0.0,83,0.00,,,0.00,WUHU21623XXSP,2013-06-08 12:09:00,
2013-06-08 08:14:00,56.8,51.4,30.00,South,180,0.0,0.0,82,0.00,,,0.00,WUHU21623XXSP,2013-06-08 12:14:00,
2013-06-08 08:19:00,56.8,51.4,30.00,South,180,1.3,1.3,82,0.00,,,0.00,WUHU21623XXSP,2013-06-08 12:19:00,
2013-06-08 08:24:00,57.4,51.9,30.00,SSE,157,0.0,1.3,82,0.00,,,0.00,WUHU21623XXSP,2013-06-08 12:24:00,
2013-06-08 08:29:00,57.7,51.9,30.00,SSE,157,0.0,1.3,81,0.00,,,0.00,WUHU21623XXSP,2013-06-08 12:29:00,
2013-06-08 08:34:00,57.7,51.9,30.00,South,180,0.0,0.0,81,0.00,,,0.00,WUHU21623XXSP,2013-06-08 12:34:00,
2013-06-08 08:39:00,58.3,52.5,30.00,South,180,0.0,0.0,80,0.00,,,0.00,WUHU21623XXSP,2013-06-08 12:39:00,
2013-06-08 08:44:00,58.8,52.7,30.00,SSW,202,0.0,0.0,80,0.00,,,0.00,WUHU21623XXSP,2013-06-08 12:44:00,
2013-06-08 08:49:00,58.8,52.7,30.01,South,180,0.0,0.0,80,0.00,,,0.00,WUHU21623XXSP,2013-06-08 12:49:00,
2013-06-08 08:54:00,58.8,52.0,30.01,SW,225,0.0,0.0,78,0.00,,,0.00,WUHU21623XXSP,2013-06-08 12:54:00,
2013-06-08 08:59:00,59.5,52.3,30.00,South,180,0.0,0.0,77,0.00,,,0.00,WUHU21623XXSP,2013-06-08 12:59:00,
2013-06-08 09:04:00,59.7,52.5,30.00,SSE,157,0.0,0.0,77,0.00,,,0.00,WUHU21623XXSP,2013-06-08 13:04:00,
2013-06-08 09:09:00,60.1,52.5,30.01,South,180,0.0,0.0,76,0.00,,,0.00,WUHU21623XXSP,2013-06-08 13:09:00,
2013-06-08 09:14:00,60.1,52.5,30.01,South,180,0.0,0.0,76,0.00,,,0.00,WUHU21623XXSP,2013-06-08 13:14:00,
2013-06-08 09:19:00,60.6,53.1,30.01,ENE,67,0.0,0.0,76,0.00,,,0.00,WUHU21623XXSP,2013-06-08 13:19:00,
2013-06-08 09:24:00,60.8,52.7,30.01,SE,135,0.0,0.0,75,0.00,,,0.00,WUHU21623XXSP,2013-06-08 13:24:00,
2013-06-08 09:29:00,61.2,53.2,30.01,ESE,112,0.0,0.0,75,0.00,,,0.00,WUHU21623XXSP,2013-06-08 13:29:00,
2013-06-08 09:34:00,61.5,53.2,30.01,ESE,112,0.0,0.0,74,0.00,,,0.00,WUHU21623XXSP,2013-06-08 13:34:00,
2013-06-08 09:39:00,61.9,53.1,30.01,ESE,112,0.0,0.0,73,0.00,,,0.00,WUHU21623XXSP,2013-06-08 13:39:00,
2013-06-08 09:44:00,62.4,53.3,30.01,East,90,0.0,0.0,72,0.00,,,0.00,WUHU21623XXSP,2013-06-08 13:44:00,
2013-06-08 09:49:00,62.4,53.3,30.01,SE,135,0.0,0.0,72,0.00,,,0.00,WUHU21623XXSP,2013-06-08 13:49:00,
2013-06-08 09:54:00,63.0,53.8,30.01,SE,135,0.0,0.0,72,0.00,,,0.00,WUHU21623XXSP,2013-06-08 13:54:00,
2013-06-08 09:59:00,63.3,54.1,30.02,SE,135,0.0,0.0,72,0.00,,,0.00,WUHU21623XXSP,2013-06-08 13:59:00,
2013-06-08 10:04:00,63.3,53.8,30.01,South,180,0.7,0.7,71,0.00,,,0.00,WUHU21623XXSP,2013-06-08 14:04:00,
2013-06-08 10:09:00,64.0,54.1,30.02,SSW,202,0.0,0.7,70,0.00,,,0.00,WUHU21623XXSP,2013-06-08 14:09:00,
2013-06-08 10:14:00,64.2,54.3,30.01,SSE,157,4.3,4.3,70,0.00,,,0.00,WUHU21623XXSP,2013-06-08 14:14:00,
2013-06-08 10:19:00,64.6,54.7,30.01,SE,135,0.0,4.3,70,0.00,,,0.00,WUHU21623XXSP,2013-06-08 14:19:00,
2013-06-08 10:24:00,64.9,54.6,30.01,SSE,157,2.0,4.3,69,0.00,,,0.00,WUHU21623XXSP,2013-06-08 14:24:00,
2013-06-08 10:29:00,65.1,54.3,30.01,South,180,0.0,2.0,68,0.00,,,0.00,WUHU21623XXSP,2013-06-08 14:29:00,
2013-06-08 10:34:00,65.7,54.8,30.01,SSE,157,0.0,2.0,68,0.00,,,0.00,WUHU21623XXSP,2013-06-08 14:34:00,
2013-06-08 10:39:00,66.0,54.7,30.01,SE,135,1.3,1.3,67,0.00,,,0.00,WUHU21623XXSP,2013-06-08 14:39:00,
2013-06-08 10:44:00,66.4,55.0,30.01,ESE,112,0.0,1.3,67,0.00,,,0.00,WUHU21623XXSP,2013-06-08 14:44:00,
2013-06-08 10:49:00,66.6,55.2,30.01,West,270,0.0,1.3,67,0.00,,,0.00,WUHU21623XXSP,2013-06-08 14:49:00,
2013-06-08 10:54:00,66.9,55.1,30.01,South,180,2.2,2.2,66,0.00,,,0.00,WUHU21623XXSP,2013-06-08 14:54:00,
2013-06-08 10:59:00,67.3,55.1,30.01,East,90,0.0,2.2,65,0.00,,,0.00,WUHU21623XXSP,2013-06-08 14:59:00,
2013-06-08 11:04:00,67.0,55.1,30.01,East,90,0.0,0.0,65,0.00,,,0.00,WUHU21623XXSP,2013-06-08 15:04:00,
2013-06-08 11:09:00,67.2,54.8,30.01,South,180,0.0,0.0,64,0.00,,,0.00,WUHU21623XXSP,2013-06-08 15:09:00,
2013-06-08 11:14:00,67.1,54.7,30.01,SE,135,0.0,0.0,64,0.00,,,0.00,WUHU21623XXSP,2013-06-08 15:14:00,
2013-06-08 11:19:00,67.2,54.8,30.01,ESE,112,1.1,1.1,64,0.00,,,0.00,WUHU21623XXSP,2013-06-08 15:19:00,
2013-06-08 11:24:00,67.2,54.4,30.01,South,180,1.3,1.3,63,0.00,,,0.00,WUHU21623XXSP,2013-06-08 15:24:00,
2013-06-08 11:29:00,66.9,53.7,30.01,South,180,0.0,1.3,62,0.00,,,0.00,WUHU21623XXSP,2013-06-08 15:29:00,
2013-06-08 11:34:00,66.8,53.6,30.02,SSE,157,0.0,1.3,62,0.00,,,0.00,WUHU21623XXSP,2013-06-08 15:34:00,
2013-06-08 11:39:00,67.0,53.2,30.02,SW,225,0.0,0.0,61,0.00,,,0.00,WUHU21623XXSP,2013-06-08 15:39:00,
2013-06-08 11:44:00,66.8,53.1,30.02,South,180,0.0,0.0,61,0.00,,,0.00,WUHU21623XXSP,2013-06-08 15:44:00,
2013-06-08 11:49:00,66.5,52.3,30.02,ESE,112,0.0,0.0,60,0.00,,,0.00,WUHU21623XXSP,2013-06-08 15:49:00,
2013-06-08 11:54:00,66.4,52.7,30.02,WSW,247,0.9,0.9,61,0.00,,,0.00,WUHU21623XXSP,2013-06-08 15:54:00,
2013-06-08 11:59:00,66.7,52.6,30.02,South,180,6.0,6.0,60,0.00,,,0.00,WUHU21623XXSP,2013-06-08 15:59:00,
2013-06-08 12:04:00,66.6,52.0,30.02,West,270,0.0,6.0,59,0.00,,,0.00,WUHU21623XXSP,2013-06-08 16:04:00,
2013-06-08 12:09:00,66.5,51.9,30.02,ESE,112,0.0,6.0,59,0.00,,,0.00,WUHU21623XXSP,2013-06-08 16:09:00,
2013-06-08 12:14:00,66.7,52.5,30.02,ESE,112,0.0,0.0,60,0.00,,,0.00,WUHU21623XXSP,2013-06-08 16:14:00,
2013-06-08 12:19:00,66.7,52.1,30.01,South,180,2.0,2.0,59,0.00,,,0.00,WUHU21623XXSP,2013-06-08 16:19:00,
2013-06-08 12:24:00,66.7,51.1,30.02,SSW,202,1.3,2.0,57,0.00,,,0.00,WUHU21623XXSP,2013-06-08 16:24:00,
2013-06-08 12:29:00,66.9,51.8,30.02,SSE,157,0.0,2.0,58,0.00,,,0.00,WUHU21623XXSP,2013-06-08 16:29:00,
2013-06-08 12:34:00,66.7,51.1,30.01,South,180,0.0,0.0,57,0.00,,,0.00,WUHU21623XXSP,2013-06-08 16:34:00,
2013-06-08 12:39:00,66.7,50.6,30.01,South,180,1.1,1.1,56,0.00,,,0.00,WUHU21623XXSP,2013-06-08 16:39:00,
2013-06-08 12:44:00,66.5,50.9,30.01,SSE,157,0.0,1.1,57,0.00,,,0.00,WUHU21623XXSP,2013-06-08 16:44:00,
2013-06-08 12:49:00,66.6,50.5,30.01,SE,135,0.0,0.0,56,0.00,,,0.00,WUHU21623XXSP,2013-06-08 16:49:00,
2013-06-08 12:54:00,66.4,50.4,30.01,West,270,2.2,2.2,56,0.00,,,0.00,WUHU21623XXSP,2013-06-08 16:54:00,
2013-06-08 12:59:00,66.7,50.6,30.00,WSW,247,2.5,2.5,56,0.00,,,0.00,WUHU21623XXSP,2013-06-08 16:59:00,
2013-06-08 13:04:00,66.5,50.5,30.01,SW,225,0.0,2.5,56,0.00,,,0.00,WUHU21623XXSP,2013-06-08 17:04:00,
2013-06-08 13:09:00,66.7,50.1,30.01,South,180,0.0,2.5,55,0.00,,,0.00,WUHU21623XXSP,2013-06-08 17:09:00,
2013-06-08 13:14:00,66.8,50.7,30.01,SSW,202,0.0,1.1,56,0.00,,,0.00,WUHU21623XXSP,2013-06-08 17:14:00,
2013-06-08 13:19:00,66.6,50.6,30.01,SSE,157,0.0,0.0,56,0.00,,,0.00,WUHU21623XXSP,2013-06-08 17:19:00,
2013-06-08 13:24:00,66.9,49.9,30.01,WSW,247,0.0,0.0,54,0.00,,,0.00,WUHU21623XXSP,2013-06-08 17:24:00,
2013-06-08 13:29:00,66.9,50.3,30.00,South,180,0.0,0.0,55,0.00,,,0.00,WUHU21623XXSP,2013-06-08 17:29:00,
2013-06-08 13:34:00,67.1,50.0,30.00,WSW,247,0.0,0.0,54,0.00,,,0.00,WUHU21623XXSP,2013-06-08 17:34:00,
2013-06-08 13:39:00,67.0,49.9,30.00,WSW,247,0.0,0.0,54,0.00,,,0.00,WUHU21623XXSP,2013-06-08 17:39:00,
2013-06-08 13:44:00,67.0,49.9,30.00,SE,135,0.0,0.0,54,0.00,,,0.00,WUHU21623XXSP,2013-06-08 17:44:00,
2013-06-08 13:49:00,67.3,49.7,30.00,ESE,112,0.0,0.0,53,0.00,,,0.00,WUHU21623XXSP,2013-06-08 17:49:00,
2013-06-08 13:54:00,67.3,49.7,30.00,SE,135,0.0,0.0,53,0.00,,,0.00,WUHU21623XXSP,2013-06-08 17:54:00,
2013-06-08 13:59:00,67.3,50.2,30.00,SSW,202,4.5,4.5,54,0.00,,,0.00,WUHU21623XXSP,2013-06-08 17:59:00,
2013-06-08 14:04:00,67.5,49.9,30.00,South,180,0.0,4.5,53,0.00,,,0.00,WUHU21623XXSP,2013-06-08 18:04:00,
2013-06-08 14:09:00,67.5,49.9,30.00,South,180,1.1,4.5,53,0.00,,,0.00,WUHU21623XXSP,2013-06-08 18:09:00,
2013-06-08 14:14:00,67.9,50.2,30.01,SW,225,0.0,1.1,53,0.00,,,0.00,WUHU21623XXSP,2013-06-08 18:14:00,
2013-06-08 14:19:00,68.1,49.9,30.01,SSW,202,0.0,0.0,52,0.00,,,0.00,WUHU21623XXSP,2013-06-08 18:19:00,
2013-06-08 14:24:00,68.1,49.9,30.00,SE,135,0.0,1.1,52,0.00,,,0.00,WUHU21623XXSP,2013-06-08 18:24:00,
2013-06-08 14:29:00,68.2,50.0,30.00,WSW,247,2.0,2.0,52,0.00,,,0.00,WUHU21623XXSP,2013-06-08 18:29:00,
2013-06-08 14:34:00,68.5,50.3,30.00,SSE,157,0.0,2.0,52,0.00,,,0.00,WUHU21623XXSP,2013-06-08 18:34:00,
2013-06-08 14:39:00,68.8,50.0,30.00,SW,225,0.0,0.0,51,0.00,,,0.00,WUHU21623XXSP,2013-06-08 18:39:00,
2013-06-08 14:44:00,68.9,50.1,30.00,SW,225,3.6,3.6,51,0.00,,,0.00,WUHU21623XXSP,2013-06-08 18:44:00,
2013-06-08 14:49:00,69.0,50.2,29.99,SSW,202,0.0,3.6,51,0.00,,,0.00,WUHU21623XXSP,2013-06-08 18:49:00,
2013-06-08 14:54:00,69.2,50.3,29.99,SW,225,1.1,3.6,51,0.00,,,0.00,WUHU21623XXSP,2013-06-08 18:54:00,
2013-06-08 14:59:00,69.3,50.5,29.99,SE,135,0.0,1.1,51,0.00,,,0.00,WUHU21623XXSP,2013-06-08 18:59:00,
2013-06-08 15:04:00,69.5,50.6,29.99,SW,225,6.3,6.3,51,0.00,,,0.00,WUHU21623XXSP,2013-06-08 19:04:00,
2013-06-08 15:09:00,69.6,50.8,29.99,South,191,1.7,6.3,51,0.00,,,0.00,WUHU21623XXSP,2013-06-08 19:09:00,
2013-06-08 15:14:00,69.8,50.4,29.99,East,90,0.0,6.3,50,0.00,,,0.00,WUHU21623XXSP,2013-06-08 19:14:00,
2013-06-08 15:19:00,70.2,50.7,29.99,SE,135,0.9,1.1,50,0.00,,,0.00,WUHU21623XXSP,2013-06-08 19:19:00,
2013-06-08 15:24:00,70.2,50.7,29.99,SSE,157,0.0,0.9,50,0.00,,,0.00,WUHU21623XXSP,2013-06-08 19:24:00,
2013-06-08 15:29:00,70.4,50.9,29.99,WSW,247,2.5,2.5,50,0.00,,,0.00,WUHU21623XXSP,2013-06-08 19:29:00,
2013-06-08 15:34:00,70.6,51.1,29.99,WSW,247,0.0,2.5,50,0.00,,,0.00,WUHU21623XXSP,2013-06-08 19:34:00,
2013-06-08 15:39:00,71.2,50.5,29.99,SW,225,0.0,5.1,48,0.00,,,0.00,WUHU21623XXSP,2013-06-08 19:39:00,
2013-06-08 15:44:00,71.4,51.3,29.99,WSW,247,0.0,5.1,49,0.00,,,0.00,WUHU21623XXSP,2013-06-08 19:44:00,
2013-06-08 15:49:00,71.8,51.7,29.99,SSE,157,2.9,2.9,49,0.00,,,0.00,WUHU21623XXSP,2013-06-08 19:49:00,
2013-06-08 15:54:00,72.1,51.9,29.99,SSE,157,0.0,2.9,49,0.00,,,0.00,WUHU21623XXSP,2013-06-08 19:54:00,
2013-06-08 15:59:00,72.5,52.4,29.99,SSE,157,0.0,2.9,49,0.00,,,0.00,WUHU21623XXSP,2013-06-08 19:59:00,
2013-06-08 16:04:00,73.0,52.8,29.99,West,270,1.8,1.8,49,0.00,,,0.00,WUHU21623XXSP,2013-06-08 20:04:00,
2013-06-08 16:09:00,73.5,52.6,29.99,SE,135,0.0,1.8,48,0.00,,,0.00,WUHU21623XXSP,2013-06-08 20:09:00,
2013-06-08 16:14:00,73.8,52.4,29.99,SW,225,0.0,1.8,47,0.00,,,0.00,WUHU21623XXSP,2013-06-08 20:14:00,
2013-06-08 16:19:00,74.2,53.2,29.98,SSE,157,2.5,2.5,48,0.00,,,0.00,WUHU21623XXSP,2013-06-08 20:19:00,
2013-06-08 16:24:00,74.3,52.8,29.98,SE,135,0.0,2.5,47,0.00,,,0.00,WUHU21623XXSP,2013-06-08 20:24:00,
2013-06-08 16:29:00,74.4,52.9,29.98,WNW,292,0.7,2.5,47,0.00,,,0.00,WUHU21623XXSP,2013-06-08 20:29:00,
2013-06-08 16:34:00,74.7,53.8,29.98,West,270,0.0,0.7,48,0.00,,,0.00,WUHU21623XXSP,2013-06-08 20:34:00,
2013-06-08 16:39:00,74.6,53.7,29.98,South,180,0.0,0.7,48,0.00,,,0.00,WUHU21623XXSP,2013-06-08 20:39:00,
2013-06-08 16:44:00,74.9,54.5,29.98,SE,135,0.0,0.0,49,0.00,,,0.00,WUHU21623XXSP,2013-06-08 20:44:00,
2013-06-08 16:49:00,75.2,54.8,29.98,SW,225,0.0,0.0,49,0.00,,,0.00,WUHU21623XXSP,2013-06-08 20:49:00,
2013-06-08 16:54:00,75.5,55.1,29.98,West,270,0.0,0.0,49,0.00,,,0.00,WUHU21623XXSP,2013-06-08 20:54:00,
2013-06-08 16:59:00,75.8,55.4,29.99,NNW,337,0.0,0.0,49,0.00,,,0.00,WUHU21623XXSP,2013-06-08 20:59:00,
2013-06-08 17:04:00,75.9,55.4,29.99,SE,135,0.0,0.0,49,0.00,,,0.00,WUHU21623XXSP,2013-06-08 21:04:00,
2013-06-08 17:09:00,75.7,55.3,29.99,South,180,0.0,0.0,49,0.00,,,0.00,WUHU21623XXSP,2013-06-08 21:09:00,
2013-06-08 17:14:00,75.7,55.3,29.99,South,180,1.8,1.8,49,0.00,,,0.00,WUHU21623XXSP,2013-06-08 21:14:00,
2013-06-08 17:19:00,75.6,55.1,29.99,ESE,112,1.6,1.8,49,0.00,,,0.00,WUHU21623XXSP,2013-06-08 21:19:00,
2013-06-08 17:24:00,75.4,55.0,29.99,SSE,157,0.0,1.6,49,0.00,,,0.00,WUHU21623XXSP,2013-06-08 21:24:00,
2013-06-08 17:29:00,75.4,55.0,29.99,SSE,157,1.1,1.6,49,0.00,,,0.00,WUHU21623XXSP,2013-06-08 21:29:00,
2013-06-08 17:34:00,75.4,55.0,29.99,SSW,202,0.0,1.1,49,0.00,,,0.00,WUHU21623XXSP,2013-06-08 21:34:00,
2013-06-08 17:39:00,75.2,55.4,29.99,WSW,247,0.0,1.1,50,0.00,,,0.00,WUHU21623XXSP,2013-06-08 21:39:00,
2013-06-08 17:44:00,75.2,55.4,29.99,SE,135,0.0,0.4,50,0.00,,,0.00,WUHU21623XXSP,2013-06-08 21:44:00,
2013-06-08 17:49:00,75.4,55.6,29.99,SE,135,0.0,2.0,50,0.00,,,0.00,WUHU21623XXSP,2013-06-08 21:49:00,
2013-06-08 17:54:00,75.4,55.6,29.99,SE,135,0.0,3.1,50,0.00,,,0.00,WUHU21623XXSP,2013-06-08 21:54:00,
2013-06-08 17:59:00,75.4,55.6,29.99,NW,315,0.0,3.1,50,0.00,,,0.00,WUHU21623XXSP,2013-06-08 21:59:00,
2013-06-08 18:04:00,75.4,56.1,29.99,NW,315,0.0,0.0,51,0.00,,,0.00,WUHU21623XXSP,2013-06-08 22:04:00,
2013-06-08 18:09:00,75.6,55.7,29.99,SSW,202,0.0,0.0,50,0.00,,,0.00,WUHU21623XXSP,2013-06-08 22:09:00,
2013-06-08 18:14:00,75.4,55.6,29.99,SSE,157,0.0,0.0,50,0.00,,,0.00,WUHU21623XXSP,2013-06-08 22:14:00,
2013-06-08 18:19:00,75.6,55.7,29.99,West,270,1.1,1.1,50,0.00,,,0.00,WUHU21623XXSP,2013-06-08 22:19:00,
2013-06-08 18:24:00,75.7,55.9,29.99,South,180,0.0,1.1,50,0.00,,,0.00,WUHU21623XXSP,2013-06-08 22:24:00,
2013-06-08 18:29:00,75.7,56.4,29.99,SSE,157,0.0,0.0,51,0.00,,,0.00,WUHU21623XXSP,2013-06-08 22:29:00,
2013-06-08 18:34:00,75.7,55.9,29.99,West,270,0.0,0.0,50,0.00,,,0.00,WUHU21623XXSP,2013-06-08 22:34:00,
2013-06-08 18:39:00,75.9,56.0,29.99,South,180,0.0,0.0,50,0.00,,,0.00,WUHU21623XXSP,2013-06-08 22:39:00,
2013-06-08 18:44:00,75.9,56.0,29.99,SSE,157,1.1,1.1,50,0.00,,,0.00,WUHU21623XXSP,2013-06-08 22:44:00,
2013-06-08 18:49:00,75.9,56.0,29.99,SE,135,0.0,1.1,50,0.00,,,0.00,WUHU21623XXSP,2013-06-08 22:49:00,
2013-06-08 18:54:00,75.7,55.9,29.99,WSW,247,0.0,0.0,50,0.00,,,0.00,WUHU21623XXSP,2013-06-08 22:54:00,
2013-06-08 18:59:00,75.7,56.4,29.99,SW,225,0.0,0.0,51,0.00,,,0.00,WUHU21623XXSP,2013-06-08 22:59:00,
2013-06-08 19:04:00,75.6,56.2,29.99,SE,135,0.0,0.0,51,0.00,,,0.00,WUHU21623XXSP,2013-06-08 23:04:00,
2013-06-08 19:09:00,75.6,56.2,29.99,South,180,0.0,0.0,51,0.00,,,0.00,WUHU21623XXSP,2013-06-08 23:09:00,
2013-06-08 19:14:00,75.4,56.1,29.99,SSW,202,0.0,0.0,51,0.00,,,0.00,WUHU21623XXSP,2013-06-08 23:14:00,
2013-06-08 19:19:00,75.4,56.1,29.99,West,270,0.0,0.0,51,0.00,,,0.00,WUHU21623XXSP,2013-06-08 23:19:00,
2013-06-08 19:24:00,75.4,56.1,29.99,SW,225,0.0,0.0,51,0.00,,,0.00,WUHU21623XXSP,2013-06-08 23:24:00,
2013-06-08 19:29:00,75.4,56.1,30.00,WSW,247,0.0,0.0,51,0.00,,,0.00,WUHU21623XXSP,2013-06-08 23:29:00,
2013-06-08 19:34:00,75.2,56.4,29.99,WSW,247,0.0,0.0,52,0.00,,,0.00,WUHU21623XXSP,2013-06-08 23:34:00,
2013-06-08 19:39:00,75.0,56.2,29.99,South,180,0.0,0.0,52,0.00,,,0.00,WUHU21623XXSP,2013-06-08 23:39:00,
2013-06-08 19:44:00,74.8,56.0,30.00,WSW,247,0.0,0.0,52,0.00,,,0.00,WUHU21623XXSP,2013-06-08 23:44:00,
2013-06-08 19:49:00,74.8,56.6,30.00,SSW,202,0.0,0.0,53,0.00,,,0.00,WUHU21623XXSP,2013-06-08 23:49:00,
2013-06-08 19:54:00,74.5,56.2,30.00,SSE,157,0.0,0.0,53,0.00,,,0.00,WUHU21623XXSP,2013-06-08 23:54:00,
2013-06-08 19:58:00,74.5,56.2,30.00,SSE,157,0.0,0.0,53,0.00,,,0.00,WUHU21623XXSP,2013-06-08 23:58:00,
2013-06-08 20:03:00,74.3,56.0,30.00,SSE,157,0.0,0.0,53,0.00,,,0.00,WUHU21623XXSP,2013-06-09 00:03:00,
2013-06-08 20:08:00,74.1,55.8,30.00,SSE,157,0.0,0.0,53,0.00,,,0.00,WUHU21623XXSP,2013-06-09 00:08:00,
2013-06-08 20:13:00,73.9,56.2,30.00,SSE,157,0.0,0.0,54,0.00,,,0.00,WUHU21623XXSP,2013-06-09 00:13:00,
2013-06-08 20:18:00,73.8,56.0,30.00,SSE,157,0.0,0.0,54,0.00,,,0.00,WUHU21623XXSP,2013-06-09 00:18:00,
2013-06-08 20:23:00,73.6,56.3,30.00,SSE,157,0.0,0.0,55,0.00,,,0.00,WUHU21623XXSP,2013-06-09 00:23:00,
2013-06-08 20:28:00,73.2,56.5,30.00,SSE,157,0.0,0.0,56,0.00,,,0.00,WUHU21623XXSP,2013-06-09 00:28:00,
2013-06-08 20:33:00,73.2,56.5,30.00,SSE,157,0.0,0.0,56,0.00,,,0.00,WUHU21623XXSP,2013-06-09 00:33:00,
2013-06-08 20:38:00,72.9,56.1,30.00,SSE,157,0.0,0.0,56,0.00,,,0.00,WUHU21623XXSP,2013-06-09 00:38:00,
2013-06-08 20:43:00,72.9,56.1,30.01,SSE,157,0.0,0.0,56,0.00,,,0.00,WUHU21623XXSP,2013-06-09 00:43:00,
2013-06-08 20:49:00,72.7,56.5,30.00,SSE,157,0.0,0.0,57,0.00,,,0.00,WUHU21623XXSP,2013-06-09 00:49:00,
2013-06-08 20:54:00,72.5,56.8,30.00,South,180,0.0,0.0,58,0.00,,,0.00,WUHU21623XXSP,2013-06-09 00:54:00,
2013-06-08 20:59:00,72.3,56.7,30.00,South,180,0.0,0.0,58,0.00,,,0.00,WUHU21623XXSP,2013-06-09 00:59:00,
2013-06-08 21:04:00,72.3,56.7,30.01,South,180,0.0,0.0,58,0.00,,,0.00,WUHU21623XXSP,2013-06-09 01:04:00,
2013-06-08 21:09:00,72.3,56.7,30.01,South,180,0.0,0.0,58,0.00,,,0.00,WUHU21623XXSP,2013-06-09 01:09:00,
2013-06-08 21:14:00,72.3,57.2,30.01,South,180,0.0,0.0,59,0.00,,,0.00,WUHU21623XXSP,2013-06-09 01:14:00,
2013-06-08 21:18:00,72.1,57.0,30.01,South,180,0.0,0.0,59,0.00,,,0.00,WUHU21623XXSP,2013-06-09 01:18:00,
2013-06-08 21:23:00,72.1,57.0,30.01,South,180,0.0,0.0,59,0.00,,,0.00,WUHU21623XXSP,2013-06-09 01:23:00,
2013-06-08 21:28:00,72.1,57.5,30.01,South,180,0.0,0.0,60,0.00,,,0.00,WUHU21623XXSP,2013-06-09 01:28:00,
2013-06-08 21:33:00,72.0,57.3,30.01,South,180,0.0,0.0,60,0.00,,,0.00,WUHU21623XXSP,2013-06-09 01:33:00,
2013-06-08 21:38:00,71.8,57.2,30.01,South,180,0.0,0.0,60,0.00,,,0.00,WUHU21623XXSP,2013-06-09 01:38:00,
2013-06-08 21:43:00,71.8,57.2,30.01,South,180,0.0,0.0,60,0.00,,,0.00,WUHU21623XXSP,2013-06-09 01:43:00,
2013-06-08 21:48:00,71.8,57.2,30.01,South,180,0.0,0.0,60,0.00,,,0.00,WUHU21623XXSP,2013-06-09 01:48:00,
2013-06-08 21:53:00,71.4,56.9,30.02,South,180,0.0,0.0,60,0.00,,,0.00,WUHU21623XXSP,2013-06-09 01:53:00,
2013-06-08 21:58:00,71.4,57.3,30.01,South,180,0.0,0.0,61,0.00,,,0.00,WUHU21623XXSP,2013-06-09 01:58:00,
2013-06-08 22:03:00,71.2,56.7,30.02,South,180,0.0,0.0,60,0.00,,,0.00,WUHU21623XXSP,2013-06-09 02:03:00,
2013-06-08 22:08:00,70.7,56.6,30.02,South,180,0.0,0.0,61,0.00,,,0.00,WUHU21623XXSP,2013-06-09 02:08:00,
2013-06-08 22:13:00,70.5,56.5,30.02,South,180,0.0,0.0,61,0.00,,,0.00,WUHU21623XXSP,2013-06-09 02:13:00,
2013-06-08 22:18:00,70.0,56.4,30.03,South,180,0.0,0.0,62,0.00,,,0.00,WUHU21623XXSP,2013-06-09 02:18:00,
2013-06-08 22:23:00,69.6,56.0,30.03,South,180,0.0,0.0,62,0.00,,,0.00,WUHU21623XXSP,2013-06-09 02:23:00,
2013-06-08 22:28:00,69.1,55.9,30.03,South,180,0.0,0.0,63,0.00,,,0.00,WUHU21623XXSP,2013-06-09 02:28:00,
2013-06-08 22:33:00,68.9,55.8,30.03,South,180,0.0,0.0,63,0.00,,,0.00,WUHU21623XXSP,2013-06-09 02:33:00,
2013-06-08 22:38:00,68.7,56.0,30.04,South,180,0.0,0.0,64,0.00,,,0.00,WUHU21623XXSP,2013-06-09 02:38:00,
2013-06-08 22:43:00,68.7,56.0,30.03,South,180,0.0,0.0,64,0.00,,,0.00,WUHU21623XXSP,2013-06-09 02:43:00,
2013-06-08 22:48:00,68.5,55.8,30.04,South,180,0.0,0.0,64,0.00,,,0.00,WUHU21623XXSP,2013-06-09 02:48:00,
2013-06-08 22:53:00,68.4,55.7,30.04,South,180,0.0,0.0,64,0.00,,,0.00,WUHU21623XXSP,2013-06-09 02:53:00,
2013-06-08 22:58:00,68.4,55.7,30.04,South,180,0.0,0.0,64,0.00,,,0.00,WUHU21623XXSP,2013-06-09 02:58:00,
2013-06-08 23:03:00,68.2,55.5,30.04,South,180,0.0,0.0,64,0.00,,,0.00,WUHU21623XXSP,2013-06-09 03:03:00,
2013-06-08 23:08:00,68.2,55.9,30.04,South,180,0.0,0.0,65,0.00,,,0.00,WUHU21623XXSP,2013-06-09 03:08:00,
2013-06-08 23:13:00,67.8,55.6,30.04,South,180,0.0,0.0,65,0.00,,,0.00,WUHU21623XXSP,2013-06-09 03:13:00,
2013-06-08 23:18:00,67.8,55.6,30.04,South,180,0.0,0.0,65,0.00,,,0.00,WUHU21623XXSP,2013-06-09 03:18:00,
2013-06-08 23:23:00,67.8,56.0,30.04,South,180,0.0,0.0,66,0.00,,,0.00,WUHU21623XXSP,2013-06-09 03:23:00,
2013-06-08 23:28:00,67.8,56.0,30.04,SSE,157,0.0,0.0,66,0.00,,,0.00,WUHU21623XXSP,2013-06-09 03:28:00,
2013-06-08 23:33:00,68.0,56.2,30.04,SSW,202,0.0,0.0,66,0.00,,,0.00,WUHU21623XXSP,2013-06-09 03:33:00,
2013-06-08 23:39:00,68.2,56.4,30.04,SSE,157,0.0,0.0,66,0.00,,,0.00,WUHU21623XXSP,2013-06-09 03:39:00,
2013-06-08 23:44:00,68.2,56.4,30.04,SSE,157,0.0,0.0,66,0.00,,,0.00,WUHU21623XXSP,2013-06-09 03:44:00,
2013-06-08 23:49:00,68.0,56.2,30.04,SE,135,0.0,0.0,66,0.00,,,0.00,WUHU21623XXSP,2013-06-09 03:49:00,
2013-06-08 23:54:00,67.8,56.4,30.04,SE,135,0.0,0.0,67,0.00,,,0.00,WUHU21623XXSP,2013-06-09 03:54:00,
2013-06-08 23:59:00,67.8,56.4,30.04,SSW,202,0.0,0.0,67,0.00,,,0.00,WUHU21623XXSP,2013-06-09 03:59:00,